Weather History for KTAZ - February, 2012

Change the Weather History Date:

Thursday, February 2, 2012

  Actual Average (KSPI) Record (KSPI)
Temperature  
Mean Temperature 45 °F 28 °F  
Max Temperature 62 °F 36 °F 62 °F (2012)
Min Temperature 28 °F 20 °F -16 °F (1905)
Degree Days  
Heating Degree Days 20 37  
Month to date heating degree days 74  
Since 1 July heating degree days 3400  
Cooling Degree Days 0 0  
Month to date cooling degree days 0  
Year to date cooling degree days 0  
Moisture  
Dew Point 35 °F    
Average Humidity 80    
Maximum Humidity 100    
Minimum Humidity 37    
Precipitation  
Precipitation 0.00 in 0.06 in 1.94 in (1883)
Month to date precipitation 0.11  
Year to date precipitation 1.93  
Snow  
Snow 0.00 in 0.20 in 5.20 in (1961)
Month to date snowfall 0.4  
Since 1 July snowfall 13.0  
Snow Depth -    
Sea Level Pressure  
Sea Level Pressure 30.25 in    
Wind  
Wind Speed 2 mph (SSW)    
Max Wind Speed 8 mph    
Max Gust Speed -    
Visibility 5 miles    
Events Fog , Snow    
T = Trace of Precipitation, MM = Missing Value Source: NWS Daily Summary

Daily Weather History Graph

Daily Weather History Graph

Search for Another Location

Airport or City:

Trip Planner

Search our weather history database for the weather conditions in past years. The results will help you decide how hot, cold, wet, or windy it might be!

Date:

Astronomy

Feb. 02, 2012 Rise Set
Actual Time 7:04 AM CST 5:18 PM CST
Civil Twilight 6:36 AM CST 5:46 PM CST
Nautical Twilight 6:03 AM CST 6:18 PM CST
Astronomical Twilight 5:32 AM CST 6:50 PM CST
Moon 12:30 PM CST (2/2) 2:46 AM CST (2/2)
Length of Visible Light 11h 10m
Length of Day
10h 13m
Waxing Gibbous, 74% of the Moon is Illuminated
Feb 2
Waxing Gibbous
Feb 7
Full
Feb 14
Last Quarter
Feb 21
New
Feb 29
First Quarter

Hourly Weather History & Observations

Time (CST) Temp. Windchill Dew Point Humidity Pressure Visibility Wind Dir Wind Speed Gust Speed Precip Events Conditions
12:15 AM 33.8 °F - 33.8 °F 100% 30.17 in 0.2 mi Calm Calm - N/A Fog Fog
12:35 AM 33.8 °F - 33.8 °F 100% 30.17 in 0.2 mi Calm Calm - N/A Fog Fog
12:55 AM 33.8 °F - 33.8 °F 100% 30.16 in 0.2 mi Calm Calm - N/A Fog Fog
1:15 AM 32.0 °F - 32.0 °F 100% 30.17 in 0.2 mi Calm Calm - N/A Fog Fog
1:35 AM 30.2 °F - 30.2 °F 100% 30.17 in 0.2 mi Calm Calm - N/A Fog Light Freezing Fog
1:55 AM 30.2 °F - 30.2 °F 100% 30.18 in 0.2 mi Calm Calm - N/A Fog Light Freezing Fog
2:15 AM 32.0 °F - 32.0 °F 100% 30.19 in 0.2 mi Calm Calm - N/A Fog Fog
2:35 AM 30.2 °F - 30.2 °F 100% 30.20 in 0.2 mi Calm Calm - N/A Fog Light Freezing Fog
2:55 AM 30.2 °F - 30.2 °F 100% 30.20 in 0.2 mi Calm Calm - N/A Fog Light Freezing Fog
3:15 AM 30.2 °F - 30.2 °F 100% 30.20 in 0.2 mi Calm Calm - N/A Fog Light Freezing Fog
3:35 AM 30.2 °F - 30.2 °F 100% 30.20 in 0.2 mi Calm Calm - N/A Fog Light Freezing Fog
3:55 AM 30.2 °F - 30.2 °F 100% 30.20 in 0.2 mi Calm Calm - N/A Fog Light Freezing Fog
4:15 AM 30.2 °F - 30.2 °F 100% 30.20 in 0.2 mi Calm Calm - N/A Fog Light Freezing Fog
4:35 AM 30.2 °F - 30.2 °F 100% 30.20 in 0.2 mi Calm Calm - N/A Fog Light Freezing Fog
4:55 AM 30.2 °F - 30.2 °F 100% 30.20 in 0.2 mi Calm Calm - N/A Fog Light Freezing Fog
5:15 AM 30.2 °F - 30.2 °F 100% 30.21 in 0.2 mi Calm Calm - N/A Fog Light Freezing Fog
5:35 AM 30.2 °F - 30.2 °F 100% 30.22 in 0.2 mi Calm Calm - N/A Fog Light Freezing Fog
5:55 AM 28.4 °F - 28.4 °F 100% 30.22 in 0.2 mi Calm Calm - N/A Fog Light Freezing Fog
6:15 AM 28.4 °F - 28.4 °F 100% 30.23 in 0.2 mi Calm Calm - N/A Fog Light Freezing Fog
6:35 AM 28.4 °F - 28.4 °F 100% 30.25 in 0.2 mi Calm Calm - N/A Fog Light Freezing Fog
6:55 AM 28.4 °F - 28.4 °F 100% 30.25 in 0.2 mi Calm Calm - N/A Fog Light Freezing Fog
7:15 AM 28.4 °F - 28.4 °F 100% 30.26 in 0.2 mi Calm Calm - N/A Fog Light Freezing Fog
7:35 AM 28.4 °F - 28.4 °F 100% 30.27 in 0.2 mi Calm Calm - N/A Fog Light Freezing Fog
7:55 AM 28.4 °F - 28.4 °F 100% 30.27 in 0.2 mi Calm Calm - N/A Snow Snow
8:15 AM 30.2 °F - 30.2 °F 100% 30.28 in 0.2 mi Calm Calm - N/A Fog Light Freezing Fog
8:35 AM 30.2 °F - 30.2 °F 100% 30.28 in 0.2 mi Calm Calm - N/A Snow Light Snow
8:55 AM 33.8 °F - 33.8 °F 100% 30.29 in 0.2 mi Calm Calm - N/A Fog Fog
9:15 AM 35.6 °F 32.8 °F 35.6 °F 100% 30.29 in 0.2 mi SSE 3.5 mph - N/A Fog Fog
9:35 AM 37.4 °F 34.9 °F 37.4 °F 100% 30.29 in 1.2 mi SSE 3.5 mph - N/A   Overcast
9:55 AM 41.0 °F 39.0 °F 41.0 °F 100% 30.30 in 4.0 mi SSE 3.5 mph - N/A   Mist
10:15 AM 44.6 °F 41.4 °F 44.6 °F 100% 30.30 in 7.0 mi South 5.8 mph - N/A   Unknown
10:35 AM 46.4 °F 43.5 °F 46.4 °F 100% 30.30 in 10.0 mi South 5.8 mph - N/A   Unknown
10:55 AM 51.8 °F - 46.4 °F 82% 30.30 in 10.0 mi SSW 5.8 mph - N/A   Unknown
11:15 AM 53.6 °F - 44.6 °F 72% 30.30 in 10.0 mi South 5.8 mph - N/A   Clear
11:35 AM 55.4 °F - 44.6 °F 67% 30.29 in 10.0 mi SSW 6.9 mph - N/A   Clear
11:55 AM 55.4 °F - 42.8 °F 63% 30.29 in 10.0 mi SSW 8.1 mph - N/A   Clear
12:15 PM 57.2 °F - 42.8 °F 59% 30.28 in 10.0 mi SW 5.8 mph - N/A   Clear
12:35 PM 60.8 °F - 42.8 °F 52% 30.27 in 10.0 mi WSW 4.6 mph - N/A   Clear
12:55 PM 60.8 °F - 39.2 °F 45% 30.26 in 10.0 mi WSW 6.9 mph - N/A   Clear
1:15 PM 60.8 °F - 37.4 °F 42% 30.26 in 10.0 mi West 5.8 mph - N/A   Clear
1:35 PM 62.6 °F - 39.2 °F 42% 30.25 in 10.0 mi SW 6.9 mph - N/A   Clear
1:55 PM 62.6 °F - 35.6 °F 37% 30.25 in 10.0 mi WSW 6.9 mph - N/A   Clear
2:15 PM 62.6 °F - 37.4 °F 39% 30.25 in 10.0 mi West 8.1 mph - N/A   Clear
2:35 PM 62.6 °F - 37.4 °F 39% 30.26 in 10.0 mi WSW 8.1 mph - N/A   Clear
2:55 PM 60.8 °F - 37.4 °F 42% 30.26 in 10.0 mi Calm Calm - N/A   Clear
3:15 PM 60.8 °F - 37.4 °F 42% 30.26 in 10.0 mi WSW 6.9 mph - N/A   Clear
3:35 PM 60.8 °F - 37.4 °F 42% 30.26 in 10.0 mi WSW 5.8 mph - N/A   Clear
3:55 PM 60.8 °F - 37.4 °F 42% 30.27 in 10.0 mi Calm Calm - N/A   Clear
4:15 PM 59.0 °F - 39.2 °F 48% 30.27 in 10.0 mi SW 3.5 mph - N/A   Clear
4:35 PM 57.2 °F - 37.4 °F 48% 30.27 in 10.0 mi WSW 3.5 mph - N/A   Clear
4:55 PM 55.4 °F - 37.4 °F 51% 30.27 in 10.0 mi Calm Calm - N/A   Unknown
5:15 PM 55.4 °F - 37.4 °F 51% 30.27 in 10.0 mi Calm Calm - N/A   Unknown
5:35 PM 53.6 °F - 35.6 °F 51% 30.27 in 10.0 mi Calm Calm - N/A   Unknown
5:55 PM 50.0 °F - 37.4 °F 62% 30.27 in 10.0 mi Calm Calm - N/A   Unknown
6:35 PM 48.2 °F - 37.4 °F 66% 30.29 in 10.0 mi SSE 4.6 mph - N/A   Clear
6:55 PM 46.4 °F 43.5 °F 37.4 °F 71% 30.29 in 10.0 mi SE 5.8 mph - N/A   Clear
7:15 PM 48.2 °F - 39.2 °F 71% 30.29 in 10.0 mi SE 5.8 mph - N/A   Clear
7:35 PM 46.4 °F 43.5 °F 41.0 °F 81% 30.30 in 10.0 mi SE 5.8 mph - N/A   Clear
7:55 PM 46.4 °F 43.5 °F 39.2 °F 76% 30.30 in 10.0 mi SE 5.8 mph - N/A   Clear
8:15 PM 46.4 °F 44.3 °F 39.2 °F 76% 30.30 in 10.0 mi SE 4.6 mph - N/A   Clear
8:35 PM 44.6 °F 40.2 °F 39.2 °F 81% 30.31 in 10.0 mi ESE 8.1 mph - N/A   Clear
8:55 PM 44.6 °F 40.7 °F 39.2 °F 81% 30.32 in 10.0 mi ESE 6.9 mph - N/A   Clear
9:15 PM 44.6 °F 41.4 °F 39.2 °F 81% 30.32 in 10.0 mi ESE 5.8 mph - N/A   Clear
9:35 PM 44.6 °F 41.4 °F 39.2 °F 81% 30.32 in 10.0 mi ESE 5.8 mph - N/A   Clear
9:55 PM 42.8 °F 39.3 °F 37.4 °F 81% 30.32 in 10.0 mi SE 5.8 mph - N/A   Clear
10:15 PM 44.6 °F 40.7 °F 37.4 °F 76% 30.33 in 10.0 mi SE 6.9 mph - N/A   Clear
10:35 PM 44.6 °F 40.7 °F 37.4 °F 76% 30.33 in 10.0 mi SE 6.9 mph - N/A   Clear
10:55 PM 42.8 °F 38.6 °F 37.4 °F 81% 30.33 in 10.0 mi SSE 6.9 mph - N/A   Clear
11:15 PM 42.8 °F 38.0 °F 37.4 °F 81% 30.33 in 10.0 mi SE 8.1 mph - N/A   Clear
11:35 PM 42.8 °F 38.0 °F 37.4 °F 81% 30.34 in 10.0 mi SE 8.1 mph - N/A   Clear
11:55 PM 42.8 °F 38.6 °F 37.4 °F 81% 30.34 in 10.0 mi SE 6.9 mph - N/A   Clear